Tracking 34410 objects as of 16-Jun-2026
HD Live streaming from Space Station
objects crossing your sky now

FENGYUN 1B

Track FENGYUN 1B now!
10-day predictions
FENGYUN 1B is classified as:


NORAD ID: 20788
Int'l Code: 1990-081A
Perigee: 878.5 km
Apogee: 901.2 km
Inclination: 99.0 °
Period: 102.6 minutes
Semi major axis: 7260 km
RCS: 3.0595 m2 (large)
Launch date: September 3, 1990
Source: People's Republic of China (PRC)
Launch site: Taiyaun Space Center, China (TSC)
Your satellite tracking list
Your tracking list is empty




NASA's NSSDC Master Catalog

Two Line Element Set (TLE):
1 20788U 90081A   26167.20358771 -.00000170  00000-0 -80672-4 0  9995
2 20788  98.9729 147.4090 0015593 340.7922  19.2655 14.03201674831419
Source of the keplerian elements: AFSPC